Regional Weather Roundup
Issued by NWS

Home | Current Version | Previous Version | Graphics & Text | Print | Product List | Glossary On
Versions: 1 2 3 4 5 6 7 8 9 10 11 12 13 14 15 16 17 18 19 20 21 22 23 24 25 26 27 28 29 30 31 32 33 34 35 36 37 38 39 40 41 42 43 44 45 46 47 48 49 50
000
ASUS43 KFSD 280502
RWRSD

WEATHER ROUNDUP FOR SOUTH DAKOTA
NATIONAL WEATHER SERVICE SIOUX FALLS SD
1200 AM CDT TUE APR 28 2015

NOTE: "FAIR" INDICATES FEW OR NO CLOUDS BELOW 12,000 FEET WITH NO
SIGNIFICANT WEATHER AND/OR OBSTRUCTIONS TO VISIBILITY.


SDZ001>005-009-010-012>017-280600-
NORTHWEST AND NORTH CENTRAL SOUTH DAKOTA

CITY           SKY/WX    TMP DP  RH WIND       PRES   REMARKS
BUFFALO          N/A     44  37  76 CALM      30.27S
FAITH            N/A     43  37  79 NW6       30.32S
MOBRIDGE       PTCLDY    41  39  93 N6        30.27F
$$

SDZ012>016-024>037-041>051-057-063-072>074-280600-
SOUTHWEST AND SOUTH CENTRAL SOUTH DAKOTA

CITY           SKY/WX    TMP DP  RH WIND       PRES   REMARKS
RAPID CTY ARPT CLOUDY    42  38  85 NW5       30.35R
PIERRE         CLOUDY    48  42  80 N9        30.31R
CUSTER         LGT RAIN  39  37  92 E5        30.33S FOG
ELLSWORTH AFB  MOCLDY    40  35  84 NW6       30.34S
PHILIP         CLOUDY    45  42  89 CALM      30.34R
PINE RIDGE     CLOUDY    45  40  82 CALM      30.35R
WINNER         FAIR      45  38  76 NW9       30.31R
$$

SDZ004>011-016>023-039-040-280600-
NORTHEAST SOUTH DAKOTA

CITY           SKY/WX    TMP DP  RH WIND       PRES   REMARKS
ABERDEEN       CLOUDY    50  43  77 N15       30.28R
WATERTOWN      CLEAR     48  36  63 N12       30.21R
BROOKINGS      PTCLDY    46  34  61 CALM      30.20R
SISSETON         N/A     52  42  69 N17       30.22R
$$

SDZ017-020-022-023-036>040-048>070-280600-
SOUTHEAST SOUTH DAKOTA

CITY           SKY/WX    TMP DP  RH WIND       PRES   REMARKS
SIOUX FALLS    PTCLDY    46  34  62 CALM      30.19R
HURON          CLEAR     51  42  71 NW13      30.23R
MITCHELL       CLEAR     53  43  68 NW15      30.22R
YANKTON        PTCLDY    52  28  40 CALM      30.19R
$$

ABBREVIATIONS USED IN REMARKS
   TC - TEMPERATURE IN CELSIUS
  WCI - WIND CHILL INDEX
   HX - HEAT INDEX
  VSB - VISIBILITY




USA.gov is the U.S. government's official web portal to all federal, state and local government web resources and services.